Volver al catálogo

PSLV R/B

ActivoHEO
NORAD 39636·ROCKET BODY·🇮🇳 India

Lanzado Apr 4, 2014 desde Satish Dhawan Space Centre

Loading…

Próximos Pases (próximas 24 horas)

TLE

ActualizadoSource: Space-Track

Época: Sep 13, 2026, 22:59 UTC

1 39636U 14017B   26256.95785355  .00004112  00000-0  65804-3 0  9992
2 39636  19.0349 134.3214 5731128 264.4494  31.3796  4.45896014188000

Sigue PSLV R/B en tiempo real con AllMySat

Download on the App Store